星链-34960 (STARLINK-34960)

导读 | 豆包AI

STARLINK-34903是美国于2025年8月28日发射的星链卫星,属于SpaceX星链星座项目。星链旨在构建全球卫星互联网,为全球偏远地区提供高速宽带服务。此卫星加入后,进一步扩充星链低轨卫星星座规模,提升星座覆盖密度与服务容量,推动全球网络覆盖普及。

基本信息
目录编号:
65372
目录名称:
STARLINK-34903
国际标识:
2025-190X
轨道中心:
EARTH
卫星名称:
星链-34960
卫星全名:
星链-34960 (STARLINK-34960)
卫星状态:
在轨 (已飞行198 天)
发射日期:
2025-08-28 UTC
国别 :
美国 (US)
星等 :
--
轨道信息
数据来源 国际轨道数据
星历时间: 2026-03-12T22:29:33+0800
1天前
查看轨道信息
半长轴: 6853.325km
偏心率: 0.0001235
轨道倾角: 53.159°
近地点辐角 83.301°
升交点赤经 154.474°
平近点角 276.813°
近地点: 474.341km
远地点: 476.035km
周期: 94.105分钟
每日圈数: 15.302092
详细信息
固有亮度:
5
最大亮度:
2.5
卫星平台:
Starlink V1.0
覆盖范围:
全球
运营商:
太空探索技术公司
运营商所在国:
美国
制造商(研发单位):
太空探索技术公司
制造商所在国:
美国
使用方式:
暂无
卫星简介
Starlink 计划是 SpaceX 推出的全球卫星互联网项目,通过发射低轨道卫星,为全球尤其是偏远地区提供高速、低延迟的互联网服务。自 2019 年起,Starlink 已部署数千颗卫星,旨在缩小全球数字鸿沟,推动互联网普及。该项目还为军事、航空等行业提供通信支持,带来广泛经济效益。
2D轨道图
3D轨道图
轨道高度分析图
轨道倾角分析图
轨道综合分析图
查看轨道综合分析图